全部
Granny Smith Airport (Granny Smith, Western Australia) YGRS 天气
There is no TAF data available at YGRS or any nearby airports.
There is no METAR data available at YGRS. Showing METAR data for YLTN (10 mi N).
LVO近期METAR历史数据(YGRS无数据)
| Date | Time (AWST) | Flight Rules | Wind Dir. | Speed | Type | Height AGL (ft) | Visibility | Temp (°C) | Temp (°F) | Dew Point (°C) | Dew Point (°F) | Rel. Humid. | Pressure | Density Altitude | Remarks |
|---|---|---|---|---|---|---|---|---|---|---|---|---|---|---|---|
| 04-五月 | 22:00 | n/a | 110° | 7 kt | Missing | 13° | 55° | 9° | 48° | 77% | 1026 mb | 1,145 ft | |||
| 04-五月 | 21:00 | n/a | 110° | 8 kt | Missing | 14° | 57° | 9° | 48° | 72% | 1027 mb | 1,235 ft | |||
| 04-五月 | 20:00 | n/a | 130° | 8 kt | Missing | 14° | 57° | 9° | 48° | 72% | 1026 mb | 1,265 ft | |||
| 04-五月 | 19:00 | n/a | 130° | 9 kt | Missing | 16° | 60° | 9° | 48° | 63% | 1026 mb | 1,505 ft | |||
| 04-五月 | 18:00 | n/a | 140° | 9 kt | Missing | 17° | 62° | 8° | 46° | 55% | 1025 mb | 1,654 ft | |||
| 04-五月 | 17:00 | n/a | 140° | 9 kt | Missing | 18° | 64° | 8° | 46° | 52% | 1024 mb | 1,804 ft | |||
| 04-五月 | 16:00 | n/a | 150° | 9 kt | Missing | 19° | 66° | 8° | 46° | 49% | 1024 mb | 1,924 ft | |||
| 04-五月 | 15:00 | n/a | 140° | 9 kt | Missing | 19° | 66° | 8° | 46° | 49% | 1024 mb | 1,924 ft | |||
| 04-五月 | 14:00 | n/a | 150° | 8 kt | Missing | 19° | 66° | 8° | 46° | 49% | 1024 mb | 1,924 ft | |||
| 04-五月 | 13:00 | n/a | 130° | 8 kt | Missing | 19° | 66° | 8° | 46° | 49% | 1025 mb | 1,894 ft | |||
| 04-五月 | 12:00 | n/a | 140° | 9 kt | Missing | 17° | 62° | 9° | 48° | 59% | 1026 mb | 1,625 ft | |||
| 04-五月 | 11:00 | n/a | 140° | 8 kt | Missing | 17° | 62° | 9° | 48° | 59% | 1027 mb | 1,595 ft | |||
| 04-五月 | 10:00 | n/a | 130° | 9 kt | Missing | 16° | 60° | 10° | 50° | 68% | 1027 mb | 1,475 ft | |||
| 04-五月 | 09:00 | n/a | 120° | 10 kt | Missing | 15° | 59° | 11° | 51° | 77% | 1027 mb | 1,355 ft | |||
| 04-五月 | 08:00 | n/a | 130° | 8 kt | Missing | 13° | 55° | 12° | 53° | 94% | 1027 mb | 1,115 ft | |||
| 04-五月 | 07:00 | n/a | 130° | 4 kt | Missing | 10° | 50° | 10° | 50° | 100% | 1026 mb | 785 ft | |||
| 04-五月 | 06:00 | n/a | 140° | 4 kt | Missing | 9° | 48° | 9° | 48° | 100% | 1026 mb | 665 ft | |||
| 04-五月 | 05:00 | n/a | 130° | 4 kt | Missing | 9° | 48° | 9° | 48° | 100% | 1025 mb | 694 ft | |||
| 04-五月 | 04:00 | n/a | 140° | 3 kt | Missing | 9° | 48° | 9° | 48° | 100% | 1025 mb | 694 ft | |||
| 04-五月 | 03:00 | n/a | 160° | 4 kt | Missing | 9° | 48° | 9° | 48° | 100% | 1025 mb | 694 ft | |||
| 04-五月 | 02:00 | n/a | Calm | Missing | 9° | 48° | 9° | 48° | 100% | 1025 mb | 694 ft | ||||
| 04-五月 | 01:00 | n/a | Calm | Missing | 10° | 50° | 10° | 50° | 100% | 1025 mb | 814 ft | ||||
| 04-五月 | 00:00 | n/a | Calm | Missing | 10° | 50° | 10° | 50° | 100% | 1025 mb | 814 ft | ||||
| 03-五月 | 23:00 | n/a | 140° | 4 kt | Missing | 12° | 53° | 9° | 48° | 82% | 1025 mb | 1,054 ft |
登录
| 您的浏览器不支持. 升级您的浏览器 |
